User: anonymous   Login
Location: Unspecified
(0.0000°N, 0.0000°E)
Time: 19:00:57
(UTC+00:00)
Language:

VENTA 1 - Orbit

View from above orbital plane
View from above orbital plane
View from above satellite
View from above satellite

Ground track
Ground track

The orbit data is extracted from the following two-line orbital elements,

1 42791U 17036AC  19340.91290690 +.00000907 +00000-0 +41290-4 0  9999
2 42791 097.3304 035.2223 0010751 356.8911 003.2257 15.23162467136326
Epoch (UTC): 06 December 2019 21:54:35
Eccentricity: 0.0010751
inclination: 97.3304°
perigee height: 489 km
apogee height: 504 km
right ascension of ascending node: 35.2223°
argument of perigee: 356.8911°
revolutions per day: 15.23162467
mean anomaly at epoch: 3.2257°
orbit number at epoch: 13632

The dashed part of the orbit path shows where the satellite is in the earth's shadow,  

DLR